SAUDISAT 1C (SO-50) (27607 NORAD) Tracking and Keplerian Element Data

This shows tracking and keplerian element data for the satellite.

Feedback or suggestion? Click here.




ElementValue
Catalog27607
NameSAUDISAT 1C (SO-50)
Epoch Orbit15491
Epoch Day159.66648149
Epoch Year2024
RAAN250.8118
Inclination64.5554
Eccentricity0.0027273
Argument of Perigee117.8992
Mean Anonmoly242.4879
Mean Motion14.78982529
Decay Rate2.771E-05
L11 27607U 02058C 24159.66648149 .00002771 00000+0 39075-3 0 9995
L22 27607 64.5554 250.8118 0027273 117.8992 242.4879 14.78982529154917



Live tracking and technical data element details for SAUDISAT 1C (SO-50) (NORAD 27607). SAUDISAT 1C (SO-50) can be tracked NOW for your location showing map with azimuth and elevation plus other details from your city location.







IsCatalogInMostPopularTable: catalog: 27607, numindb: 968
Update: records affected: 1



GetName: 27607 SAUDISAT 1C (SO-50)

Hit Count: updated at: Tue, 17 Sep 2024 11:22:23 GMT